UmKA 1 (RS40S)
1 57172U 23091G   26031.82127788  .00006657  00000-0  32067-3 0  9997
2 57172  97.5264  91.0767 0012141 231.0206 128.9947 15.19015499143293
CubeBel-2 (EU11S)
1 57175U 23091K   26031.79267846  .00012210  00000-0  48222-3 0  9998
2 57175  97.5259  94.0110 0009627 231.6752 128.3621 15.25625017143486
RS-38S
1 57189U 23091Z   26031.86009963  .00016230  00000-0  53820-3 0  9991
2 57189  97.5284  98.9692 0007812 188.6191 171.4917 15.31315045143794
SONATE-2
1 59112U 24043Q   26031.79330323  .00030322  00000-0  57003-3 0  9991
2 59112  97.5351 175.0450 0008269 347.4906  12.6137 15.48494621106719
MO-122
1 60209U 24125G   26031.55925160  .00037099  00000-0  65280-3 0  9998
2 60209  97.2495 247.0920 0014052   7.5961 352.5501 15.50267305 88314
GRBBeta
1 60237U 24128C   26031.84637429  .00004875  00000-0  34252-3 0  9993
2 60237  61.9922 334.1896 0054231 106.6393 254.0663 15.05348761 85735
Curium One
1 60242U 24128H   26031.81182316  .00009357  00000-0  56647-3 0  9998
2 60242  61.9810 327.9346 0054060 103.3745 257.3384 15.09989972 85849
ROBUSTA-3A
1 60243U 24128J   26031.24196864  .00010167  00000-0  62579-3 0  9991
2 60243  61.9889 331.7089 0054629 100.7716 259.9535 15.09286194 85733
CatSat
1 60246U 24125J   26031.55627110  .00038552  00000-0  79963-3 0  9991
2 60246  97.2256 243.5435 0029840 328.5804  31.3662 15.45131563 86201
HYPERVIEW-1G (RS66S)
1 61772U 24199AP  26031.83049280  .00049882  00000-0  78980-3 0  9990
2 61772  97.3159 267.0614 0011407  61.1998 299.0399 15.53205884113379
AO-123
1 61781U 24199AY  26031.88248655  .00009704  00000-0  30332-3 0  9990
2 61781  97.3212 261.8154 0016037  77.8517 282.4521 15.33239425113026
HADES-R (SO-124)
1 62690U 25009CK  26031.19182553  .02142076  40381-2  28785-2 0  9997
2 62690  97.3614 121.7643 0008610 298.2732  61.7681 16.07490824 58550
HYDRA-T
1 62692U 25009CM  26028.19742799  .10589489  24473-5  20739-2 0  9999
2 62692  97.3569 119.0624 0010828 297.3030  62.7162 16.31546071 58115
JINJUSat 1B
1 63210U 25052A   26031.24007943  .00015494  00000-0  55714-3 0  9995
2 63210  97.4180 288.1477 0002799 176.4737 183.6523 15.28710599 49145
NUSHSAT 1
1 63211U 25052B   26031.65385560  .00019610  00000-0  67391-3 0  9993
2 63211  97.4160 288.7617 0002476 178.0480 182.0770 15.30141001 49226
TEVEL2-4
1 63213U 25052D   26031.67916604  .00017969  00000-0  63399-3 0  9995
2 63213  97.4081 288.2293 0001251 186.2413 173.8812 15.29301946 49210
TEVEL2-5
1 63214U 25052E   26031.68744826  .00017214  00000-0  60939-3 0  9992
2 63214  97.4069 288.2174 0001312 183.2420 176.8811 15.29200986 49212
TEVEL2-6
1 63215U 25052F   26031.69624727  .00017318  00000-0  61388-3 0  9995
2 63215  97.4080 288.2129 0001316 188.6330 171.4888 15.29157585 49210
TEVEL2-1
1 63217U 25052H   26031.68488782  .00017056  00000-0  61165-3 0  9997
2 63217  97.4054 287.9687 0000891 223.8319 136.2850 15.28779446 49206
TEVEL2-3
1 63218U 25052J   26031.68324982  .00017140  00000-0  61411-3 0  9997
2 63218  97.4056 287.9761 0000889 225.3865 134.7302 15.28809280 49207
TEVEL2-2
1 63219U 25052K   26031.16195607  .00015974  00000-0  57344-3 0  9994
2 63219  97.4055 287.4494 0000759 238.2001 121.9165 15.28761333 49128
TEVEL2-9
1 63237U 25052AD  26031.69934700  .00016017  00000-0  60319-3 0  9992
2 63237  97.4122 287.6156 0004620 268.5035  91.5675 15.27172461 49163
TEVEL2-7
1 63238U 25052AE  26031.65324068  .00016630  00000-0  62973-3 0  9998
2 63238  97.4121 287.5317 0004752 270.0553  90.0142 15.26981059 49152
TEVEL2-8
1 63239U 25052AF  26031.65970019  .00016495  00000-0  62513-3 0  9991
2 63239  97.4118 287.5209 0004800 270.5948  89.4741 15.26955736 49156
HYDRA-W
1 63490U 25052BL  26031.67688887  .00101170  00000-0  16993-2 0  9996
2 63490  97.4021 291.4892 0002723 231.4982 128.6026 15.51416664 49439
HADES-ICM (SO-125)
1 63492U 25052BN  26031.68972122  .00081303  00000-0  15451-2 0  9990
2 63492  97.4027 291.0463 0003388 248.1902 111.8988 15.47970013 49408
Dragonfly
1 65729U 98067XH  26031.05194254  .08662331  12285-4  96629-3 0  9997
2 65729  51.6000 237.6139 0006569 265.0285  94.9990 16.36242872 20999
RSP-03
1 65732U 98067XL  26031.83996109  .00418910  78658-4  12178-2 0  9992
2 65732  51.6172 237.7491 0005357 220.4943 139.5666 15.92327526 21072
BOTAN
1 65942U 98067XP  26030.99527225  .00228767  00000-0  12151-2 0  9992
2 65942  51.6191 247.9181 0005447 209.4507 150.6188 15.79268787 17603
CEVROSAT1
1 66309U 25248S   26031.27462868  .00005692  00000-0  28157-3 0  9998
2 66309  45.4035 134.9502 0003167 331.8293  28.2421 15.18826130 13689
SPIRONE
1 66657U 25274H   26031.68729992  .00003604  00000-0  35312-3 0  9994
2 66657  97.7424 323.0553 0014007 105.8851 254.3914 14.92818072  9858
K-HERO
1 66660U 25274L   26031.79930806  .00002556  00000-0  24901-3 0  9995
2 66660  97.7428 323.2214 0015620 110.2538 250.0362 14.93293977  9870
SNUGLITE-III DURI
1 66661U 25274M   26031.79356110  .00002097  00000-0  20463-3 0  9995
2 66661  97.7425 323.2266 0016194 111.4144 248.8805 14.93401275  9877
SilverSat
1 66909U 98067XV  26031.82711152  .00092891  00000-0  10749-2 0  9991
2 66909  51.6269 252.0071 0003226 173.2127 186.8911 15.61074845  9413
SAKHACUBE-CHOLBON
1 67290U 25313AU  26031.81033734  .00010695  00000-0  47075-3 0  9996
2 67290  97.4087 108.7485 0011057 113.5512 246.6887 15.21975083  5216
QMR-KWT
1 67291U 25313AV  26031.80829337  .00014418  00000-0  62882-3 0  9998
2 67291  97.4087 108.7512 0010786 113.3529 246.8844 15.22216949  5217
IO-86
1 40931U          25360.30710720  .00000000  00000-0  12800-3 0    00
2 40931   6.0006 332.5373 0012733 338.8432   8.1437 14.79075515    01
